Weather History for KDZB - March, 2014

Change the Weather History Date:

Saturday, March 8, 2014

  Actual Average (KBMQ) Record (KBMQ)
Temperature  
Mean Temperature 51 °F -  
Max Temperature 61 °F 63 °F 82 °F (2009)
Min Temperature 41 °F 44 °F 30 °F (2008)
Degree Days  
Heating Degree Days 14    
Growing Degree Days 1 (Base 50)    
Moisture  
Dew Point 46 °F    
Average Humidity 81    
Maximum Humidity 100    
Minimum Humidity 57    
Precipitation  
Precipitation 0.09 in - - ()
Sea Level Pressure  
Sea Level Pressure 30.07 in    
Wind  
Wind Speed 6 mph (North)    
Max Wind Speed 13 mph    
Max Gust Speed 21 mph    
Visibility 8 miles    
Events Rain , Thunderstorm    
Averages and records for this station are not official NWS values.
T = Trace of Precipitation, MM = Missing Value Source: NWS Daily Summary

Daily Weather History Graph

Daily Weather History Graph

Search for Another Location

Airport or City:

Trip Planner

Search our weather history database for the weather conditions in past years. The results will help you decide how hot, cold, wet, or windy it might be!

Date:

Astronomy

Mar. 08, 2014 Rise Set
Actual Time 5:51 AM MST 5:37 PM MST
Civil Twilight 5:27 AM MST 6:01 PM MST
Nautical Twilight 4:59 AM MST 6:29 PM MST
Astronomical Twilight 4:31 AM MST 6:56 PM MST
Moon 10:59 AM MST (3/8) 12:11 AM MST (3/8)
Length of Visible Light 12h 33m
Length of Day
11h 45m
First Quarter, 52% of the Moon is Illuminated
Mar 8
First Quarter
Mar 16
Full
Mar 23
Last Quarter
Mar 30
New
Apr 7
First Quarter

Hourly Weather History & Observations

Time (MST) Temp. Windchill Dew Point Humidity Pressure Visibility Wind Dir Wind Speed Gust Speed Precip Events Conditions
12:15 AM 55.4 °F - 49.5 °F 80% 29.88 in 10.0 mi South 6.9 mph - N/A   Overcast
12:40 AM 55.6 °F - 50.0 °F 81% 29.87 in 10.0 mi South 5.8 mph - N/A   Overcast
12:55 AM 55.8 °F - 50.4 °F 82% 29.86 in 10.0 mi South 5.8 mph - N/A   Overcast
1:15 AM 55.9 °F - 50.9 °F 83% 29.87 in 10.0 mi South 8.1 mph - N/A   Overcast
1:35 AM 56.3 °F - 51.1 °F 83% 29.87 in 10.0 mi South 3.5 mph - N/A   Overcast
1:55 AM 56.3 °F - 51.1 °F 83% 29.86 in 10.0 mi South 6.9 mph - N/A   Overcast
2:15 AM 55.9 °F - 51.3 °F 84% 29.86 in 10.0 mi South 5.8 mph - N/A   Overcast
2:35 AM 55.4 °F - 51.3 °F 86% 29.86 in 10.0 mi South 4.6 mph - N/A   Mostly Cloudy
2:55 AM 55.4 °F - 51.8 °F 88% 29.86 in 10.0 mi Calm Calm - N/A   Mostly Cloudy
3:15 AM 55.6 °F - 52.3 °F 89% 29.86 in 10.0 mi South 4.6 mph - N/A   Overcast
3:35 AM 55.4 °F - 52.5 °F 90% 29.86 in 10.0 mi South 3.5 mph - N/A   Mostly Cloudy
3:55 AM 55.0 °F - 53.1 °F 93% 29.86 in 10.0 mi South 4.6 mph - N/A   Scattered Clouds
4:15 AM 55.2 °F - 54.0 °F 96% 29.86 in 10.0 mi South 5.8 mph - N/A   Scattered Clouds
4:35 AM 55.4 °F - 53.8 °F 94% 29.87 in 10.0 mi Calm Calm - N/A   Mostly Cloudy
4:55 AM 56.3 °F - 54.1 °F 92% 29.88 in 10.0 mi South 3.5 mph - N/A   Overcast
5:15 AM 56.5 °F - 53.6 °F 90% 29.93 in 10.0 mi North 3.5 mph - N/A   Overcast
5:35 AM 56.3 °F - 53.8 °F 91% 29.95 in 10.0 mi Calm Calm - N/A   Overcast
5:55 AM 55.9 °F - 54.0 °F 93% 29.98 in 10.0 mi NNW 3.5 mph - N/A   Overcast
6:15 AM 55.9 °F - 54.0 °F 93% 29.98 in 10.0 mi Calm Calm - N/A   Overcast
6:35 AM 55.9 °F - 54.1 °F 94% 30.00 in 5.0 mi Calm Calm - N/A Rain Rain
6:55 AM 55.8 °F - 55.8 °F 100% 30.00 in 2.5 mi Calm Calm - N/A   Drizzle
7:15 AM 55.8 °F - 55.8 °F 100% 30.02 in 3.0 mi NNW 4.6 mph - N/A   Drizzle
7:35 AM 55.6 °F - 55.6 °F 100% 30.03 in 2.5 mi Calm Calm - N/A   Drizzle
7:55 AM 55.8 °F - 55.8 °F 100% 30.03 in 2.0 mi Calm Calm - N/A   Drizzle
8:15 AM 56.3 °F - 56.3 °F 100% 30.04 in 2.5 mi Calm Calm - N/A   Light Drizzle
8:35 AM 57.0 °F - 57.0 °F 100% 30.04 in 4.0 mi Calm Calm - N/A   Overcast
8:55 AM 57.9 °F - 57.9 °F 100% 30.05 in 5.0 mi East 3.5 mph - N/A   Overcast
9:15 AM 58.5 °F - 58.5 °F 100% 30.06 in 5.0 mi ESE 3.5 mph - N/A   Overcast
9:35 AM 58.6 °F - 58.6 °F 100% 30.06 in 5.0 mi SE 3.5 mph - N/A   Overcast
9:50 AM 59.2 °F - 58.5 °F 97% 30.06 in 7.0 mi ESE 3.5 mph - N/A   Overcast
10:35 AM 61.9 °F - 56.1 °F 81% 30.07 in 10.0 mi North 4.6 mph - N/A   Overcast
10:50 AM 58.8 °F - 52.0 °F 78% 30.07 in 10.0 mi NNW 10.4 mph 16.1 mph N/A   Overcast
11:35 AM 56.5 °F - 44.8 °F 65% 30.08 in 10.0 mi NNW 8.1 mph - N/A   Overcast
11:55 AM 57.0 °F - 43.7 °F 61% 30.08 in 10.0 mi NNW 8.1 mph - N/A   Overcast
12:15 PM 55.6 °F - 41.9 °F 60% 30.08 in 10.0 mi NNW 12.7 mph 18.4 mph N/A   Overcast
12:35 PM 55.0 °F - 41.9 °F 61% 30.08 in 10.0 mi NNW 9.2 mph 19.6 mph N/A   Overcast
12:55 PM 55.4 °F - 41.9 °F 60% 30.09 in 10.0 mi North 9.2 mph 18.4 mph N/A   Overcast
1:15 PM 54.9 °F - 40.6 °F 59% 30.09 in 10.0 mi North 10.4 mph 17.3 mph N/A   Overcast
1:35 PM 54.3 °F - 39.7 °F 58% 30.09 in 10.0 mi North 12.7 mph 18.4 mph N/A   Overcast
1:55 PM 53.2 °F - 39.4 °F 59% 30.10 in 10.0 mi NNW 9.2 mph - N/A   Overcast
2:15 PM 53.1 °F - 38.8 °F 59% 30.08 in 7.0 mi North 10.4 mph 17.3 mph N/A   Overcast
2:30 PM 53.2 °F - 38.7 °F 58% 30.10 in 7.0 mi North 9.2 mph - N/A   Overcast
3:15 PM 51.4 °F - 36.7 °F 57% 30.11 in 7.0 mi North 10.4 mph 20.7 mph N/A   Overcast
3:35 PM 50.9 °F - 36.7 °F 58% 30.11 in 7.0 mi NNW 10.4 mph 20.7 mph N/A Thunderstorm Overcast
3:55 PM 47.8 °F - 40.3 °F 75% 30.12 in 4.0 mi NNW 8.1 mph 16.1 mph 0.01 in Rain , Thunderstorm Light Thunderstorms and Rain
4:15 PM 47.3 °F - 42.3 °F 83% 30.14 in 4.0 mi Calm Calm - 0.02 in Rain Light Rain
4:40 PM 48.0 °F - 42.1 °F 80% 30.15 in 5.0 mi NNW 3.5 mph - 0.02 in   Haze
4:55 PM 47.7 °F - 42.1 °F 81% 30.15 in 5.0 mi North 8.1 mph - 0.02 in Rain , Thunderstorm Rain
5:15 PM 46.8 °F - 42.4 °F 85% 30.16 in 4.0 mi North 5.8 mph - 0.02 in Rain Rain
5:35 PM 46.4 °F 43.5 °F 42.4 °F 86% 30.16 in 4.0 mi NNE 5.8 mph - 0.04 in Rain Rain
6:15 PM 45.7 °F 43.4 °F 41.5 °F 85% 30.18 in 7.0 mi NNE 4.6 mph - N/A Rain , Thunderstorm Light Thunderstorms and Rain
6:35 PM 45.3 °F - 41.9 °F 88% 30.20 in 5.0 mi Calm Calm - N/A   Overcast
6:55 PM 45.5 °F 43.2 °F 41.0 °F 84% 30.22 in 7.0 mi NNE 4.6 mph - N/A   Overcast
7:15 PM 45.5 °F 40.8 °F 39.2 °F 79% 30.22 in 7.0 mi North 9.2 mph - N/A   Overcast
7:35 PM 45.5 °F 40.8 °F 37.4 °F 73% 30.24 in 10.0 mi North 9.2 mph - N/A Thunderstorm Thunderstorm
8:15 PM 45.7 °F 41.5 °F 36.5 °F 70% 30.27 in 10.0 mi North 8.1 mph - N/A   Overcast
8:35 PM 45.7 °F 41.0 °F 35.2 °F 67% 30.28 in 10.0 mi North 9.2 mph - N/A Rain Light Rain
8:55 PM 45.1 °F 39.9 °F 34.2 °F 65% 30.28 in 10.0 mi North 10.4 mph 17.3 mph N/A Rain Light Rain
9:15 PM 45.0 °F 38.9 °F 33.8 °F 65% 30.29 in 10.0 mi North 12.7 mph 16.1 mph N/A   Overcast
9:35 PM 44.6 °F 38.8 °F 33.6 °F 65% 30.30 in 10.0 mi NNW 11.5 mph 18.4 mph N/A   Overcast
9:55 PM 43.7 °F 38.6 °F 34.9 °F 71% 30.29 in 10.0 mi North 9.2 mph 17.3 mph N/A Rain Rain
10:15 PM 42.8 °F 39.3 °F 36.5 °F 78% 30.28 in 10.0 mi North 5.8 mph - N/A Rain Light Rain
10:35 PM 41.7 °F 39.8 °F 36.9 °F 83% 30.27 in 7.0 mi North 3.5 mph - 0.02 in Rain Light Rain
10:55 PM 41.9 °F 35.9 °F 36.3 °F 81% 30.27 in 10.0 mi North 10.4 mph - 0.02 in   Overcast
11:15 PM 41.9 °F 36.3 °F 34.7 °F 76% 30.28 in 10.0 mi North 9.2 mph 16.1 mph N/A   Mostly Cloudy
11:35 PM 41.9 °F 38.2 °F 34.7 °F 76% 30.27 in 10.0 mi North 5.8 mph - N/A   Scattered Clouds
11:55 PM 41.9 °F 36.9 °F 34.0 °F 73% 30.27 in 10.0 mi NNW 8.1 mph - N/A   Scattered Clouds